[[{"header":{"parameterUnit":"m.s-1","parameterCategory":1,"la1":30.2991,"la2":30.254,"lo1":-89.0895,"lo2":-89.0444,"dy":0.0017,"dx":0.0017,"nx":28,"ny":28,"refTime":"2025-09-16T21:00:00:Z","depth":0,"parameterNumber":2,"parameterNumberName":"U-component_of_WINDS"},"data":[0,0,0,0,0,0,0,0,0,0,0,0,0,0,0,0,0,0,0,0,0,0,0,0,0,0,0,0,0,0,0,0,0,0,0,0,0,0,0,0,0,0,0,0,0,0,0,0,0,0,0,0,0,0,0,0,0,0,1.4262,1.4262,0,1.4262,1.4263,1.4263,1.4253,1.4253,1.4253,1.4252,1.4251,1.4252,1.4252,0,0,0,0,0,0,0,0,0,0,0,0,0,1.4249,1.4249,1.4262,1.4262,1.4262,1.4262,1.4263,1.4263,1.4253,1.4253,1.4253,1.4252,1.4251,1.4252,1.4252,0,0,0,0,0,0,0,0,0,0,0,0,0,1.4253,1.4249,1.4262,1.4257,1.4257,1.4262,1.4263,1.4263,1.4253,1.4253,1.4252,1.4252,1.4251,1.4252,1.4252,1.4262,0,0,1.4253,1.4253,0,0,0,0,0,0,0,0,1.4252,1.4253,1.4258,1.4257,1.4257,1.4257,1.4258,1.4262,1.4253,1.4254,1.4252,1.4252,1.4254,1.4254,1.4255,1.4262,1.4261,1.4253,1.4253,1.4253,1.4253,0,0,0,0,0,0,0,1.4252,1.4253,1.4262,1.4258,1.4257,1.4254,1.4254,1.4258,1.4256,1.4254,1.4254,1.4254,1.4253,1.4254,1.4255,1.4261,1.4253,1.4253,1.4253,1.4254,1.4274,1.4274,0,0,0,0,0,0,1.4253,1.4253,1.4262,1.4262,1.4254,1.4255,1.4255,1.4258,1.4256,1.4255,1.4254,1.4254,1.4254,1.4254,1.4254,1.4264,1.4253,1.4254,1.4254,1.4273,1.4274,1.4274,0,0,0,0,0,0,1.4253,1.4254,1.4262,1.4257,1.4258,1.4255,1.4259,1.4258,1.4259,1.4256,1.4255,1.4256,1.4254,1.4254,1.4259,1.4264,1.4254,1.4254,1.4273,1.4274,1.4274,1.4284,0,0,0,0,0,0,1.4252,1.4254,1.4258,1.4257,1.4258,1.4268,1.4259,1.4258,1.426,1.4259,1.4257,1.4257,1.4253,1.4259,1.426,1.4264,1.4254,1.4273,1.4273,1.4274,1.4284,1.4285,1.4287,0,0,0,0,0,1.4252,1.4261,1.4258,1.426,1.4264,1.4268,1.4268,1.4265,1.426,1.4264,1.4262,1.4257,1.4264,1.426,1.426,1.4265,1.4272,1.4273,1.4274,1.4283,1.4285,1.4287,0,0,0,0,0,0,1.4262,1.4261,1.4258,1.4268,1.4268,1.4267,1.4271,1.4267,1.4269,1.4268,1.4263,1.4262,1.4268,1.4267,1.4263,1.4273,1.4267,1.4268,1.4274,1.4275,1.4277,1.4277,1.4255,0,0,0,0,0,1.4266,1.427,1.4268,1.4277,1.4277,1.4274,1.4276,1.4273,1.4273,1.4273,1.4271,1.4271,1.4273,1.4274,1.4276,1.4283,1.4282,1.4287,1.4288,1.429,1.429,1.4292,1.4294,1.4277,1.4277,1.4277,0,0,1.4273,1.4273,1.4276,1.4279,1.4279,1.4282,1.4275,1.4279,1.4281,1.4274,1.4278,1.4277,1.4276,1.4282,1.4285,1.4282,1.4295,1.4291,1.4292,1.4291,1.4293,1.4295,1.4296,1.4277,1.4277,1.4277,0,0,1.4288,1.4289,1.4295,1.4295,1.4295,1.4292,1.4294,1.4293,1.4291,1.4296,1.429,1.4292,1.4296,1.4295,1.4295,1.4307,1.4302,1.4308,1.4315,1.4317,1.4319,1.432,1.4323,1.4324,1.4309,1.4309,1.4309,0,1.4296,1.4302,1.4298,1.4303,1.4303,1.4297,1.4302,1.4302,1.4303,1.4303,1.4299,1.4303,1.4302,1.4307,1.4309,1.431,1.4311,1.4308,1.4319,1.432,1.4321,1.4324,1.4325,1.4309,1.4309,1.4309,1.4309,0,1.4312,1.4316,1.432,1.4321,1.4322,1.4327,1.4323,1.4325,1.4321,1.4319,1.4323,1.4321,1.4322,1.4323,1.432,1.4327,1.4324,1.432,1.4314,1.4323,1.4326,1.4327,1.431,1.431,1.431,1.431,0,0,1.4333,1.4331,1.4332,1.4332,1.4331,1.4333,1.4337,1.4338,1.4338,1.4338,1.434,1.4343,1.4338,1.4338,1.4335,1.4337,1.4345,1.4332,1.4332,1.4334,1.4351,1.4353,1.4355,1.4342,1.4342,1.4342,1.435,0,1.4346,1.4353,1.4349,1.4356,1.4359,1.4352,1.4355,1.4354,1.4351,1.4352,1.4349,1.4351,1.4346,1.4345,1.4347,1.4344,1.4348,1.4343,1.4342,1.4342,1.4342,1.4356,1.4359,1.4367,1.4351,1.4352,1.4352,0,1.4362,1.4363,1.437,1.4367,1.4368,1.4371,1.437,1.4372,1.437,1.4367,1.4367,1.4362,1.4364,1.4358,1.436,1.4357,1.4356,1.4354,1.4355,1.4354,1.4347,1.4355,1.437,1.4371,1.4353,1.4353,1.4353,0,1.4375,1.4378,1.4382,1.4382,1.4379,1.4381,1.4379,1.4377,1.4377,1.4376,1.4376,1.4376,1.4375,1.4374,1.4369,1.4365,1.4371,1.4365,1.4368,1.4368,1.4369,1.4369,1.4384,1.437,1.437,1.437,1.437,0,1.439,1.4394,1.4388,1.439,1.4394,1.4389,1.4393,1.4391,1.4389,1.439,1.4384,1.4385,1.4379,1.4379,1.4374,1.4376,1.4376,1.4373,1.4372,1.4373,1.4374,1.4373,1.4371,1.4371,1.4371,1.4371,1.437,0,1.4405,1.4401,1.4405,1.4401,1.44,1.4403,1.44,1.4401,1.4398,1.44,1.44,1.4394,1.4394,1.4389,1.4387,1.4384,1.4387,1.4385,1.4387,1.4386,1.439,1.4389,1.4403,1.4404,1.4391,1.4391,1.4392,0,1.4413,1.4417,1.4413,1.4414,1.4412,1.4413,1.4413,1.4408,1.4408,1.4405,1.4407,1.4406,1.4404,1.4404,1.4399,1.4397,1.4395,1.44,1.4394,1.4395,1.4393,1.4393,1.4393,1.4401,1.4401,1.4401,1.4401,0,1.4429,1.4427,1.4427,1.4426,1.4426,1.4425,1.4424,1.4425,1.4419,1.4419,1.4418,1.4417,1.4415,1.4414,1.4411,1.4409,1.4403,1.4403,1.4403,1.4404,1.4405,1.4404,1.439,1.4403,1.4402,1.4402,1.4402,1.4402,1.444,1.4442,1.444,1.444,1.4438,1.4437,1.4437,1.4434,1.4434,1.4432,1.4429,1.4428,1.4425,1.4421,1.4419,1.4417,1.4415,1.4416,1.4416,1.4416,1.4416,1.4406,1.4417,1.4417,1.4417,1.4417,1.4417,0,1.4454,1.4452,1.4452,1.445,1.445,1.4446,1.4444,1.4444,1.4443,1.4441,1.444,1.4438,1.4437,1.4432,1.4429,1.4429,1.4427,1.4429,1.4428,1.4427,1.4419,1.4419,1.4431,1.4431,1.4431,1.4431,1.4431,1.4431,1.4461,1.4464,1.4461,1.4462,1.446,1.4459,1.4458,1.4457,1.4454,1.4453,1.4452,1.4449,1.4445,1.4442,1.444,1.4438,1.4437,1.444,1.4437,1.443,1.4428,1.4427,1.4426,1.444,1.444,1.4445,1.4446,1.4446]},{"header":{"parameterUnit":"m.s-1","parameterCategory":1,"la1":30.2991,"la2":30.254,"lo1":-89.0895,"lo2":-89.0444,"dy":0.0017,"dx":0.0017,"nx":28,"ny":28,"refTime":"2025-09-16T21:00:00:Z","depth":0,"parameterNumber":3,"parameterNumberName":"V-component_of_WINDS"},"data":[0,0,0,0,0,0,0,0,0,0,0,0,0,0,0,0,0,0,0,0,0,0,0,0,0,0,0,0,0,0,0,0,0,0,0,0,0,0,0,0,0,0,0,0,0,0,0,0,0,0,0,0,0,0,0,0,0,0,-0.1262,-0.1262,0,-0.1235,-0.1234,-0.1234,-0.1247,-0.1248,-0.1249,-0.125,-0.1221,-0.1219,-0.1218,0,0,0,0,0,0,0,0,0,0,0,0,0,-0.1327,-0.1326,-0.1262,-0.1262,-0.1262,-0.1235,-0.1234,-0.1234,-0.1247,-0.1248,-0.1249,-0.125,-0.1221,-0.1219,-0.1218,0,0,0,0,0,0,0,0,0,0,0,0,0,-0.1299,-0.1326,-0.1262,-0.1265,-0.1265,-0.1235,-0.1234,-0.1234,-0.1247,-0.1248,-0.1249,-0.125,-0.1222,-0.122,-0.1217,-0.1183,0,0,-0.1211,-0.121,0,0,0,0,0,0,0,0,-0.1301,-0.1297,-0.1265,-0.1265,-0.1265,-0.1246,-0.1247,-0.1217,-0.1247,-0.1254,-0.125,-0.1251,-0.1228,-0.1225,-0.1218,-0.1181,-0.118,-0.1211,-0.1209,-0.1208,-0.1208,0,0,0,0,0,0,0,-0.1303,-0.1298,-0.1251,-0.1265,-0.1264,-0.1268,-0.1265,-0.1241,-0.1235,-0.1253,-0.1254,-0.1251,-0.1228,-0.122,-0.1217,-0.118,-0.1211,-0.1209,-0.1208,-0.1207,-0.1115,-0.1114,0,0,0,0,0,0,-0.1305,-0.13,-0.1252,-0.125,-0.1286,-0.1266,-0.1263,-0.1251,-0.1236,-0.1234,-0.125,-0.1252,-0.1223,-0.122,-0.1216,-0.1176,-0.1208,-0.1206,-0.1205,-0.1116,-0.1115,-0.1114,0,0,0,0,0,0,-0.1306,-0.13,-0.1253,-0.1275,-0.127,-0.1264,-0.125,-0.125,-0.1241,-0.1233,-0.1232,-0.1243,-0.1224,-0.1219,-0.1191,-0.1175,-0.1205,-0.1204,-0.1118,-0.1116,-0.1114,-0.1094,0,0,0,0,0,0,-0.1308,-0.1301,-0.1287,-0.1275,-0.1268,-0.1228,-0.1249,-0.1248,-0.1238,-0.1239,-0.1226,-0.1225,-0.1224,-0.1195,-0.1189,-0.1172,-0.1202,-0.1119,-0.1117,-0.1115,-0.1096,-0.1091,-0.1088,0,0,0,0,0,-0.131,-0.1282,-0.1286,-0.128,-0.1251,-0.1227,-0.1224,-0.1224,-0.1236,-0.1223,-0.1218,-0.1225,-0.1178,-0.1192,-0.1186,-0.1168,-0.112,-0.1117,-0.1115,-0.1097,-0.1092,-0.1088,0,0,0,0,0,0,-0.1291,-0.128,-0.1285,-0.1252,-0.1241,-0.123,-0.1213,-0.1218,-0.1203,-0.1205,-0.1207,-0.1203,-0.1175,-0.1169,-0.1184,-0.1135,-0.1151,-0.1147,-0.1139,-0.1134,-0.113,-0.1133,-0.12,0,0,0,0,0,-0.1283,-0.1265,-0.1256,-0.1228,-0.1222,-0.1218,-0.1208,-0.121,-0.1198,-0.1193,-0.1186,-0.1174,-0.1157,-0.1145,-0.1129,-0.1095,-0.1093,-0.108,-0.1076,-0.1073,-0.107,-0.1053,-0.1047,-0.1105,-0.1105,-0.1105,0,0,-0.1267,-0.1258,-0.1246,-0.1224,-0.1215,-0.1197,-0.1214,-0.1193,-0.118,-0.119,-0.1163,-0.1158,-0.1145,-0.1114,-0.11,-0.1108,-0.1053,-0.107,-0.1067,-0.1065,-0.105,-0.1044,-0.1039,-0.1104,-0.1104,-0.1104,0,0,-0.1227,-0.1218,-0.1194,-0.1186,-0.1173,-0.1171,-0.1166,-0.1154,-0.1151,-0.1125,-0.1133,-0.1116,-0.1086,-0.1077,-0.1069,-0.1028,-0.1034,-0.1022,-0.1001,-0.0985,-0.098,-0.0976,-0.0962,-0.0957,-0.1019,-0.1019,-0.1019,0,-0.1207,-0.1179,-0.1181,-0.116,-0.1151,-0.116,-0.1137,-0.1128,-0.111,-0.1104,-0.1113,-0.1076,-0.1068,-0.1036,-0.1027,-0.1019,-0.1013,-0.1024,-0.0981,-0.0977,-0.0973,-0.096,-0.0955,-0.1018,-0.1018,-0.1018,-0.1018,0,-0.1157,-0.1138,-0.112,-0.1104,-0.1092,-0.107,-0.1069,-0.1057,-0.106,-0.1057,-0.1031,-0.1022,-0.1005,-0.0997,-0.0999,-0.0966,-0.0972,-0.0981,-0.0997,-0.0966,-0.0954,-0.0949,-0.1016,-0.1016,-0.1017,-0.1017,0,0,-0.1103,-0.109,-0.1083,-0.1077,-0.1064,-0.1049,-0.1028,-0.1012,-0.1002,-0.099,-0.0973,-0.0948,-0.0957,-0.0947,-0.0949,-0.0934,-0.0904,-0.0945,-0.0945,-0.0939,-0.0868,-0.0861,-0.0856,-0.0908,-0.0907,-0.0906,-0.0869,0,-0.1063,-0.1026,-0.1028,-0.0994,-0.0977,-0.0986,-0.0968,-0.0958,-0.0956,-0.0941,-0.0938,-0.0921,-0.0933,-0.0928,-0.0914,-0.091,-0.089,-0.0913,-0.0893,-0.0892,-0.0896,-0.0849,-0.0842,-0.0807,-0.0864,-0.0864,-0.0863,0,-0.1011,-0.0998,-0.0962,-0.0954,-0.0947,-0.093,-0.0916,-0.0902,-0.0892,-0.0891,-0.0882,-0.0886,-0.0865,-0.0883,-0.0855,-0.0871,-0.0863,-0.086,-0.0858,-0.0856,-0.0876,-0.0847,-0.0796,-0.0791,-0.0855,-0.0856,-0.0857,0,-0.0976,-0.095,-0.0926,-0.092,-0.0909,-0.0898,-0.0893,-0.0884,-0.0875,-0.0862,-0.0856,-0.0842,-0.0834,-0.0823,-0.0823,-0.0836,-0.0795,-0.0812,-0.0795,-0.0795,-0.0786,-0.0786,-0.0733,-0.078,-0.078,-0.078,-0.078,0,-0.0931,-0.0909,-0.091,-0.0895,-0.0871,-0.0874,-0.085,-0.0847,-0.0839,-0.0824,-0.0831,-0.0817,-0.0819,-0.0804,-0.0805,-0.0782,-0.0778,-0.0778,-0.0778,-0.0777,-0.0777,-0.0772,-0.0775,-0.0779,-0.0779,-0.0779,-0.0779,0,-0.0888,-0.0888,-0.0862,-0.0855,-0.0853,-0.0836,-0.083,-0.0816,-0.0815,-0.0795,-0.0791,-0.0789,-0.0773,-0.0773,-0.0754,-0.0754,-0.0727,-0.073,-0.073,-0.0731,-0.0714,-0.0716,-0.0656,-0.0649,-0.0699,-0.0699,-0.0698,0,-0.086,-0.0843,-0.0835,-0.0826,-0.082,-0.0805,-0.0796,-0.0798,-0.0789,-0.0777,-0.0765,-0.075,-0.0738,-0.0712,-0.0708,-0.0694,-0.0697,-0.0678,-0.0695,-0.0696,-0.0698,-0.0699,-0.0698,-0.0674,-0.0673,-0.0673,-0.0673,0,-0.0809,-0.0811,-0.0797,-0.0784,-0.0774,-0.0763,-0.0754,-0.0746,-0.0748,-0.0737,-0.0721,-0.0711,-0.0693,-0.0678,-0.0665,-0.066,-0.0667,-0.0667,-0.0663,-0.0661,-0.0663,-0.0663,-0.0721,-0.0668,-0.0669,-0.0669,-0.0669,-0.067,-0.0773,-0.076,-0.0752,-0.0738,-0.0731,-0.0723,-0.071,-0.0708,-0.0694,-0.068,-0.0683,-0.0665,-0.0657,-0.064,-0.0635,-0.0621,-0.0628,-0.0621,-0.062,-0.0618,-0.0616,-0.0665,-0.0619,-0.0619,-0.0619,-0.0619,-0.0619,0,-0.0724,-0.072,-0.0707,-0.0694,-0.0683,-0.0691,-0.0682,-0.0672,-0.0656,-0.0649,-0.0637,-0.0619,-0.0605,-0.0602,-0.0589,-0.0579,-0.0581,-0.0575,-0.0576,-0.0575,-0.061,-0.0616,-0.0573,-0.0573,-0.0573,-0.0573,-0.0573,-0.0573,-0.0697,-0.0675,-0.0676,-0.0651,-0.0647,-0.063,-0.0625,-0.0617,-0.0611,-0.0591,-0.058,-0.0578,-0.0572,-0.0559,-0.0547,-0.0546,-0.0541,-0.0534,-0.0535,-0.0568,-0.0572,-0.0577,-0.0582,-0.0533,-0.0533,-0.05,-0.05,-0.05]}]]